Météo par heure à Jamousoukro

Ce jour, 13 Avril, Mardi

Heure Température Précipitation Vent Pression Humidité
00:00 +27°C° 0 mm 1 m/s 751 mmHg 85%
01:00 +27°C° 0 mm 1 m/s 751 mmHg 86%
02:00 +27°C° 0 mm 1 m/s 751 mmHg 87%
03:00 +25°C° 0 mm 0 m/s 750 mmHg 88%
04:00 +25°C° 0 mm 0 m/s 751 mmHg 89%
05:00 +25°C° 0 mm 0 m/s 752 mmHg 89%
06:00 +25°C° 0 mm 0 m/s 752 mmHg 89%
07:00 +29°C° 0 mm 1 m/s 753 mmHg 82%
08:00 +30°C° 0 mm 1 m/s 753 mmHg 75%
09:00 +32°C° 0 mm 1 m/s 753 mmHg 69%
10:00 +35°C° 0 mm 2 m/s 753 mmHg 62%
11:00 +36°C° 0 mm 2 m/s 752 mmHg 55%
12:00 +38°C° 0 mm 2 m/s 752 mmHg 48%
13:00 +37°C° 0.4 mm 2 m/s 751 mmHg 53%
14:00 +35°C° 0.4 mm 3 m/s 751 mmHg 57%
15:00 +34°C° 0.4 mm 3 m/s 750 mmHg 62%
16:00 +31°C° 2.7 mm 2 m/s 750 mmHg 71%
17:00 +30°C° 2.7 mm 2 m/s 751 mmHg 79%
18:00 +28°C° 2.7 mm 1 m/s 751 mmHg 87%
19:00 +28°C° 0.8 mm 1 m/s 752 mmHg 88%
20:00 +27°C° 0.8 mm 2 m/s 753 mmHg 89%
21:00 +27°C° 0.8 mm 2 m/s 754 mmHg 90%
22:00 +26°C° 0.1 mm 2 m/s 753 mmHg 89%
23:00 +26°C° 0.1 mm 2 m/s 752 mmHg 89%

Demain, 14 Avril, Mercredi

Heure Température Précipitation Vent Pression Humidité
00:00 +25°C° 0.1 mm 2 m/s 751 mmHg 88%
01:00 +26°C° 0 mm 1 m/s 751 mmHg 89%
02:00 +26°C° 0 mm 1 m/s 751 mmHg 90%
03:00 +26°C° 0 mm 1 m/s 750 mmHg 91%
04:00 +26°C° 0 mm 1 m/s 751 mmHg 91%
05:00 +24°C° 0 mm 0 m/s 751 mmHg 92%
06:00 +24°C° 0 mm 0 m/s 752 mmHg 92%
07:00 +26°C° 0 mm 0 m/s 752 mmHg 83%
08:00 +31°C° 0 mm 1 m/s 753 mmHg 74%
09:00 +33°C° 0 mm 1 m/s 753 mmHg 65%
10:00 +33°C° 0.2 mm 1 m/s 753 mmHg 62%
11:00 +35°C° 0.2 mm 2 m/s 752 mmHg 58%
12:00 +36°C° 0.2 mm 2 m/s 752 mmHg 54%
13:00 +35°C° 1 mm 2 m/s 751 mmHg 59%
14:00 +34°C° 1 mm 2 m/s 751 mmHg 63%
15:00 +32°C° 1 mm 2 m/s 750 mmHg 68%
16:00 +31°C° 0.2 mm 2 m/s 750 mmHg 73%
17:00 +30°C° 0.2 mm 2 m/s 750 mmHg 78%
18:00 +29°C° 0.2 mm 2 m/s 750 mmHg 83%
19:00 +28°C° 0.9 mm 2 m/s 751 mmHg 86%
20:00 +27°C° 0.9 mm 1 m/s 752 mmHg 90%
21:00 +26°C° 0.9 mm 1 m/s 753 mmHg 93%
22:00 +26°C° 1.5 mm 1 m/s 753 mmHg 93%
23:00 +26°C° 1.5 mm 1 m/s 753 mmHg 93%

Après-demain, 15 Avril, Jeudi

Heure Température Précipitation Vent Pression Humidité
00:00 +25°C° 1.5 mm 2 m/s 753 mmHg 94%
01:00 +25°C° 0.1 mm 1 m/s 752 mmHg 93%
02:00 +25°C° 0.1 mm 1 m/s 751 mmHg 92%
03:00 +23°C° 0.1 mm 0 m/s 751 mmHg 91%
04:00 +23°C° 0 mm 0 m/s 751 mmHg 92%
05:00 +23°C° 0 mm 0 m/s 751 mmHg 92%
06:00 +23°C° 0 mm 0 m/s 752 mmHg 92%
07:00 +25°C° 0 mm 0 m/s 752 mmHg 86%
08:00 +27°C° 0 mm 0 m/s 752 mmHg 79%
09:00 +29°C° 0 mm 0 m/s 753 mmHg 72%
10:00 +32°C° 0 mm 1 m/s 752 mmHg 66%
11:00 +33°C° 0 mm 1 m/s 752 mmHg 60%
12:00 +34°C° 0 mm 1 m/s 751 mmHg 54%
13:00 +35°C° 0 mm 1 m/s 751 mmHg 52%
14:00 +35°C° 0 mm 1 m/s 750 mmHg 50%
15:00 +35°C° 0 mm 1 m/s 749 mmHg 47%
16:00 +34°C° 0 mm 1 m/s 749 mmHg 56%
17:00 +32°C° 0 mm 1 m/s 749 mmHg 64%
18:00 +30°C° 0 mm 2 m/s 750 mmHg 72%
19:00 +29°C° 0 mm 1 m/s 750 mmHg 77%
20:00 +28°C° 0 mm 1 m/s 751 mmHg 83%
21:00 +27°C° 0 mm 1 m/s 751 mmHg 88%
22:00 +27°C° 0 mm 1 m/s 751 mmHg 89%
23:00 +27°C° 0 mm 1 m/s 750 mmHg 91%

16 Avril, Vendredi

Heure Température Précipitation Vent Pression Humidité
00:00 +27°C° 0 mm 1 m/s 750 mmHg 92%
01:00 +26°C° 0 mm 1 m/s 750 mmHg 93%
02:00 +26°C° 0 mm 1 m/s 750 mmHg 95%
03:00 +26°C° 0 mm 1 m/s 749 mmHg 96%
04:00 +24°C° 0 mm 0 m/s 750 mmHg 95%
05:00 +24°C° 0 mm 0 m/s 750 mmHg 94%
06:00 +25°C° 0 mm 0 m/s 751 mmHg 93%
07:00 +28°C° 0 mm 1 m/s 751 mmHg 84%
08:00 +30°C° 0 mm 1 m/s 752 mmHg 74%
09:00 +32°C° 0 mm 2 m/s 752 mmHg 64%
10:00 +32°C° 0 mm 2 m/s 752 mmHg 63%
11:00 +34°C° 0 mm 2 m/s 751 mmHg 62%
12:00 +34°C° 0 mm 2 m/s 751 mmHg 61%
13:00 +34°C° 0.1 mm 2 m/s 750 mmHg 61%
14:00 +34°C° 0.1 mm 2 m/s 750 mmHg 61%
15:00 +33°C° 0.1 mm 1 m/s 749 mmHg 61%
16:00 +32°C° 0 mm 2 m/s 749 mmHg 66%
17:00 +31°C° 0 mm 2 m/s 749 mmHg 70%
18:00 +30°C° 0 mm 2 m/s 749 mmHg 74%
19:00 +29°C° 0 mm 2 m/s 750 mmHg 78%
20:00 +28°C° 0 mm 2 m/s 751 mmHg 83%
21:00 +27°C° 0 mm 1 m/s 752 mmHg 87%
22:00 +27°C° 0 mm 1 m/s 751 mmHg 89%
23:00 +27°C° 0 mm 1 m/s 751 mmHg 91%

17 Avril, Samedi

Heure Température Précipitation Vent Pression Humidité
00:00 +27°C° 0 mm 1 m/s 750 mmHg 92%
01:00 +27°C° 0 mm 1 m/s 750 mmHg 93%
02:00 +26°C° 0 mm 1 m/s 750 mmHg 94%
03:00 +24°C° 0 mm 0 m/s 750 mmHg 95%
04:00 +27°C° 0 mm 1 m/s 750 mmHg 94%
05:00 +27°C° 0 mm 1 m/s 750 mmHg 93%
06:00 +27°C° 0 mm 1 m/s 751 mmHg 91%
07:00 +29°C° 0 mm 1 m/s 751 mmHg 81%
08:00 +31°C° 0 mm 2 m/s 751 mmHg 70%
09:00 +34°C° 0 mm 2 m/s 752 mmHg 60%
10:00 +34°C° 0.2 mm 2 m/s 751 mmHg 62%
11:00 +34°C° 0.2 mm 2 m/s 751 mmHg 63%
12:00 +32°C° 0.2 mm 2 m/s 751 mmHg 65%
13:00 +32°C° 0.5 mm 2 m/s 751 mmHg 65%
14:00 +32°C° 0.5 mm 2 m/s 750 mmHg 65%
15:00 +34°C° 0.5 mm 2 m/s 750 mmHg 65%
16:00 +31°C° 0.6 mm 2 m/s 750 mmHg 72%
17:00 +30°C° 0.6 mm 1 m/s 750 mmHg 78%
18:00 +28°C° 0.6 mm 1 m/s 751 mmHg 85%
19:00 +28°C° 0 mm 1 m/s 751 mmHg 87%
20:00 +27°C° 0 mm 1 m/s 751 mmHg 90%
21:00 +27°C° 0 mm 1 m/s 752 mmHg 92%
22:00 +27°C° 0 mm 1 m/s 752 mmHg 93%
23:00 +27°C° 0 mm 1 m/s 752 mmHg 93%

18 Avril, Dimanche

Heure Température Précipitation Vent Pression Humidité
00:00 +26°C° 0 mm 1 m/s 752 mmHg 94%
01:00 +26°C° 0 mm 1 m/s 751 mmHg 94%
02:00 +26°C° 0 mm 1 m/s 751 mmHg 95%
03:00 +26°C° 0 mm 1 m/s 751 mmHg 95%
04:00 +24°C° 0 mm 0 m/s 751 mmHg 95%
05:00 +24°C° 0 mm 0 m/s 751 mmHg 94%
06:00 +24°C° 0 mm 0 m/s 751 mmHg 94%
07:00 +28°C° 0 mm 1 m/s 752 mmHg 84%
08:00 +30°C° 0 mm 1 m/s 752 mmHg 75%
09:00 +32°C° 0 mm 1 m/s 753 mmHg 65%
10:00 +34°C° 0 mm 2 m/s 752 mmHg 61%
11:00 +35°C° 0 mm 2 m/s 752 mmHg 56%
12:00 +36°C° 0 mm 2 m/s 752 mmHg 51%
13:00 +36°C° 0 mm 2 m/s 751 mmHg 51%
14:00 +36°C° 0 mm 2 m/s 750 mmHg 51%
15:00 +36°C° 0 mm 2 m/s 750 mmHg 50%
16:00 +34°C° 0 mm 2 m/s 750 mmHg 57%
17:00 +32°C° 0 mm 2 m/s 750 mmHg 64%
18:00 +30°C° 0 mm 2 m/s 750 mmHg 70%
19:00 +29°C° 0 mm 2 m/s 751 mmHg 76%
20:00 +29°C° 0 mm 1 m/s 751 mmHg 81%
21:00 +28°C° 0 mm 1 m/s 752 mmHg 86%
22:00 +27°C° 0 mm 1 m/s 751 mmHg 88%
23:00 +27°C° 0 mm 1 m/s 751 mmHg 89%
Voir plus

Nous avons besoin de votre consentement

Meteoprog et ses fournisseurs de services peuvent stocker et accéder à des données personnelles telles que des cookies, des identifiants d'appareils ou d'autres technologies similaires sur votre appareil et traiter ces données pour personnaliser le contenu et les publicités, ainsi que pour fournir des fonctionnalités de médias sociaux et analyser le trafic.

  • Stocker et/ou accéder à des informations sur votre appareil

    Des cookies, des identifiants d'appareils ou d'autres informations peuvent être stockés ou accessibles sur votre appareil aux fins indiquées ci-dessus.

  • Annonces et contenus personnalisés, mesure des annonces et des contenus, connaissance de l'audience et développement de produits

    Les annonces et le contenu peuvent être personnalisés en fonction d'un profil. D'autres données peuvent être ajoutées pour mieux personnaliser les annonces et le contenu. Les performances des publicités et du contenu peuvent être mesurées. Il est possible d'obtenir des informations sur le public qui a vu les publicités et le contenu. Ces données peuvent être utilisées pour développer ou améliorer l'expérience de l'utilisateur, les systèmes et les logiciels.

En cliquant sur "J'accepte", vous autorisez l'utilisation de cookies, des identifiants d'appareils, des balises web ou d'autres technologies similaires. Vos paramètres peuvent être modifiés dans le navigateur de votre appareil.

Dans certains cas, des intérêts légitimes peuvent être invoqués plutôt qu'un consentement. Vous pouvez en savoir plus à ce sujet dans notre Politique de confidentialité et de cookies.